Location: Casteau
(50.5142°N, 4.0161°E)
Time: 08:35:40
(UTC+00:00)

HJ-1C - Pass Details

Date: 18 September 2020
Orbit: 432 x 443 km, 97.1° (Epoch: 28 October)

Event Time Altitude Azimuth Distance (km) Brightness Sun altitude
Rises 18:25:13 0° 159° (SSE) 2,398 6.8 -6.4°
Reaches altitude 10° 18:27:14 10° 156° (SSE) 1,536 5.8 -6.7°
Maximum altitude 18:30:29 66° 74° (ENE) 481 3.3 -7.2°
Drops below altitude 10° 18:33:47 10° 352° (N) 1,554 6.4 -7.7°
Sets 18:35:49 0° 350° (N) 2,429 7.4 -8.0°
